Location: Red Deer
(52.2681°N, 113.8112°W)
Time: 19:32:36
(UTC-07:00)

N. Korean satellite - Pass Details

Date: 02 December 2022
Orbit: 407 x 442 km, 97.3° (Epoch: 05 February)

Event Time Altitude Azimuth Distance (km) Brightness Sun altitude
Rises 17:37:05 0° 192° (SSW) 2,449 10.7 -10.4°
Reaches altitude 10° 17:39:18 10° 206° (SSW) 1,593 9.9 -10.7°
Maximum altitude 17:42:15 27° 265° (W) 930 8.9 -11.1°
Drops below altitude 10° 17:45:16 10° 325° (NW) 1,630 9.4 -11.5°
Sets 17:47:34 0° 338° (NNW) 2,519 10.2 -11.8°
